SL-14 DEB, 45336

Orbit data source: Space-Track

SL-14 DEB, 45336 is space debris in LEO originally from a launch on Thu, 15 Aug 1991 UTC launched from the Plesetsk Missile And Space Complex (PKMTR). Debris objects in space refer to the collection of defunct objects orbiting the Earth. Examples of debris include non-operational satellites, rocket bodies, and fragments generated from explosions, collisions, or faulty payload assembly.

Loading next visibility...
Identifier
45336, 1991-056CA
Orbit
LEO
Last TLE update
10 hours ago
Origin
Manufacturer
Unknown
Mission
Spacecraft
Bus & Motor
Unknown
Mass
Unknown
Launch date (UTC)
1991-08-15 (34 years ago)
Launch vehicle
Unknown
Launch site
Plesetsk Missile And Space Complex (PKMTR)
Object type
Payload
Rocket body
Debris
Shape & HBR
Unknown
Radar Cross Section
Small (<0.1 m²)

Expand to show TLE details & history

TLE from 10 hours ago
0 SL-14 DEB
1 45336U 91056CA  25189.89486617  .00000873  00000-0  18100-2 0  9996
2 45336  82.5788 359.1019 0052953 121.6777 238.9533 13.30658874260112
Epoch: 2025-07-08T21:28Z
TLE epoch observation values (Epoch: 2025-07-08T21:28:36.437Z)
Latitude
0.00002°
Longitude
109.86679°
Altitude
1,167.808 km
Speed
7.259 km/s
True Right ascension
23h 56m 24s
True Declination
0° 00' 00"
Sunlit
Object was in daylight at epoch
Visualization orbit readout
Latitude
6.86658°
Longitude
-71.32446°
Altitude
1,122.025 km
Speed
7.304 km/s
Apparent Right ascension
10h 11m 26s
Apparent Declination
-16° 51' 10"
Sunlit
Object is in daylight
Visualization observer readout
Local Sidereal Time
19:31:09
Azimuth
291.897° WNW
Elevation
-48.399°
Doppler factor
1
Orbital elements
Apogee altitude
1,181.322 km
Perigee altitude
1,101.685 km
Semi-major axis
7,519.641 km
Eccentricity
0.0053
Inclination
82.5788°
RAAN
359.1019°
Arg. of periapsis
121.6777°
True anomaly
Unknown
Mean anomaly
238.9533°
Eccentric anomaly
Unknown
Mean motion
3.32849 °/min
Orbital period
108.16 mins
BSTAR
0.00181
Loading maneuver chart data...
Loading SW <> Apogee altitude chart data...
Loading historical data...
Loading historical data...
Loading historical data...
Loading historical data...
Loading historical data...
Loading historical data...
Loading historical data...

SL-14 DEB Visibility forecast

Observer location: undefined°, undefined°

Span
Click to sort rows by Start time (UTC) header in descending order
Start Az.
Max El. time (UTC)
Max El. Az.
Max El.
End time (UTC)
End Az.
5 mins2025-07-09 10:16:40.868Z98.174° ESE2025-07-09 10:18:40.868Z80.684° E12.658°2025-07-09 10:21:40.868Z54.594° ENE
12 mins2025-07-09 12:01:40.868Z183.767° SSW2025-07-09 12:06:40.868Z154.398° SSE44.852°2025-07-09 12:13:40.868Z8.39° NNE
6 mins2025-07-09 13:54:40.868Z273.968° WNW2025-07-09 13:56:40.868Z292.857° NW14.988°2025-07-09 14:00:40.868Z328.809° NNW
7 mins2025-07-09 21:33:40.868Z38.948° NE2025-07-09 21:36:40.868Z68.977° E16.548°2025-07-09 21:40:40.868Z105.425° ESE
12 mins2025-07-09 23:20:40.868Z348.539° N2025-07-09 23:26:40.868Z229.467° WSW43.923°2025-07-09 23:32:40.868Z180.948° SSW
|